Regional Weather Roundup
Issued by NWS

Home | Current Version | Previous Version | Graphics & Text | Print | Product List | Glossary On
Versions: 1 2 3 4 5 6 7 8 9 10 11 12 13 14 15 16 17 18 19 20 21 22 23 24 25 26 27 28 29 30 31 32 33 34 35 36 37 38 39 40 41 42 43 44 45 46 47 48 49 50
501
ASUS43 KLSX 131807
RWRMO

WEATHER SUMMARY FOR MISSOURI
NATIONAL WEATHER SERVICE SPRINGFIELD MO
1200 PM CST WED DEC 13 2017

NOTE: "FAIR" INDICATES FEW OR NO CLOUDS BELOW 12,000 FEET WITH NO
       SIGNIFICANT WEATHER AND/OR OBSTRUCTIONS TO VISIBILITY.
       CURRENT SKY AND/OR WEATHER CONDITIONS ARE NOT AVAILABLE FOR
       CHILLICOTHE AND FARMINGTON.

MOZ001>031-035>038-043-044-053-054-131900-
...NORTHERN AND WESTERN MISSOURI...

CITY           SKY/WX    TMP DP  RH WIND       PRES   REMARKS
KANSAS CTY INT MOSUNNY   58  29  33 NW25G47   29.73S
6HR MIN TEMP:  35; 6HR MAX TEMP:  59;

KANSAS C DTWN  SUNNY     60  30  32 NW25G39   29.72S
6HR MIN TEMP:  37; 6HR MAX TEMP:  60;

LEE`S SUMMIT   SUNNY     59  29  31 NW21G30   29.72F
6HR MIN TEMP:  37; 6HR MAX TEMP:  59;

ST JOSEPH      SUNNY     57  32  38 NW31G40   29.73F
6HR MIN TEMP:  29; 6HR MAX TEMP:  57;

CHILLICOTHE      N/A     57  31  37 NW21G38   29.65S
6HR MIN TEMP:  33; 6HR MAX TEMP:  57;

KIRKSVILLE     MOSUNNY   53  37  54 NW28G44   29.57R
6HR MIN TEMP:  32; 6HR MAX TEMP:  55;


$$
MOZ066>068-077>081-088>096-101>105-131900-
...SOUTHWEST MISSOURI...

CITY           SKY/WX    TMP DP  RH WIND       PRES   REMARKS
SPRINGFIELD    SUNNY     54  25  32 W16G24    29.79F
6HR MIN TEMP:  31; 6HR MAX TEMP:  54;

JOPLIN         CLOUDY    51  28  41 W10       29.85F
6HR MIN TEMP:  41; 6HR MAX TEMP:  51;

BRANSON        PTSUNNY   55  23  28 W7G18     29.82F

$$
MOZ032>034-039>042-045>050-055>058-069>072-131900-
...CENTRAL MISSOURI...

CITY           SKY/WX    TMP DP  RH WIND       PRES   REMARKS
COLUMBIA       SUNNY     53  26  35 W24G33    29.64F
6HR MIN TEMP:  32; 6HR MAX TEMP:  54;

JEFFERSON CITY SUNNY     54  26  34 W20G28    29.66F
6HR MIN TEMP:  34; 6HR MAX TEMP:  54;

ROLLA          SUNNY     53  27  36 W15       29.68F
6HR MIN TEMP:  32; 6HR MAX TEMP:  53;

SEDALIA        SUNNY     56  29  35 W17G25    29.70F
6HR MIN TEMP:  39; 6HR MAX TEMP:  56;

WHITEMAN AFB   MOSUNNY   58  26  29 NW24G33   29.66F
WARRENSBURG    SUNNY     59  27  29 W17G28    29.71F
OSAGE BEACH    SUNNY     54  27  35 W10G16    29.72F

$$
MOZ051-052-059>065-131900-
...EAST CENTRAL MISSOURI...

CITY           SKY/WX    TMP DP  RH WIND       PRES   REMARKS
ST LOUIS INTL  PTSUNNY   51  26  37 W18G30    29.60S
6HR MIN TEMP:  30; 6HR MAX TEMP:  51;

SPIRIT OF STL  PTSUNNY   52  26  36 W17G29    29.60S
6HR MIN TEMP:  32; 6HR MAX TEMP:  53;

ST CHARLES     CLOUDY    51  25  36 W18G30    29.57F
6HR MIN TEMP:  25; 6HR MAX TEMP:  51;


$$
MOZ072>076-082>087-097>100-106>115-131900-
...SOUTH CENTRAL AND SOUTHEAST MISSOURI...

CITY           SKY/WX    TMP DP  RH WIND       PRES   REMARKS
CAPE GIRARDEAU SUNNY     47  22  37 SW25G33   29.73F
6HR MIN TEMP:  26; 6HR MAX TEMP:  47;

FARMINGTON     SUNNY     51  22  31 SW18G30   29.65F
6HR MIN TEMP:  27; 6HR MAX TEMP:  52;

POPLAR BLUFF   SUNNY     49  21  33 SW23G32   29.76F
6HR MIN TEMP:  27; 6HR MAX TEMP:  49;

WEST PLAINS    SUNNY     53  22  29 SW16G25   29.75F
6HR MIN TEMP:  31; 6HR MAX TEMP:  53;


$$



USA.gov is the U.S. government's official web portal to all federal, state and local government web resources and services.